[{"OBJECT_NAME":"STARLETTE","OBJECT_ID":"1975-010A","EPOCH":"2026-09-12T03:08:57.149664","MEAN_MOTION":13.82351591,"ECCENTRICITY":0.02056495,"INCLINATION":49.8232,"RA_OF_ASC_NODE":121.4128,"ARG_OF_PERICENTER":350.2735,"MEAN_ANOMALY":9.4206,"EPHEMERIS_TYPE":0,"CLASSIFICATION_TYPE":"U","NORAD_CAT_ID":7646,"ELEMENT_SET_NO":999,"REV_AT_EPOCH":60656,"BSTAR":0.000017567282,"MEAN_MOTION_DOT":-0.00000121,"MEAN_MOTION_DDOT":0},{"OBJECT_NAME":"LAGEOS 1","OBJECT_ID":"1976-039A","EPOCH":"2026-09-11T16:23:43.725408","MEAN_MOTION":6.38664823,"ECCENTRICITY":0.0044605,"INCLINATION":109.8164,"RA_OF_ASC_NODE":208.9362,"ARG_OF_PERICENTER":283.7274,"MEAN_ANOMALY":106.8454,"EPHEMERIS_TYPE":0,"CLASSIFICATION_TYPE":"U","NORAD_CAT_ID":8820,"ELEMENT_SET_NO":999,"REV_AT_EPOCH":91866,"BSTAR":0,"MEAN_MOTION_DOT":-1e-7,"MEAN_MOTION_DDOT":0},{"OBJECT_NAME":"AJISAI (EGS)","OBJECT_ID":"1986-061A","EPOCH":"2026-09-12T07:10:56.999712","MEAN_MOTION":12.44517374,"ECCENTRICITY":0.00113088,"INCLINATION":50.0073,"RA_OF_ASC_NODE":239.5288,"ARG_OF_PERICENTER":42.1276,"MEAN_ANOMALY":165.6422,"EPHEMERIS_TYPE":0,"CLASSIFICATION_TYPE":"U","NORAD_CAT_ID":16908,"ELEMENT_SET_NO":999,"REV_AT_EPOCH":49123,"BSTAR":-0.00010052903,"MEAN_MOTION_DOT":-0.00000112,"MEAN_MOTION_DDOT":0},{"OBJECT_NAME":"COSMOS 1989 (ETALON 1)","OBJECT_ID":"1989-001C","EPOCH":"2026-09-12T04:43:46.877376","MEAN_MOTION":2.13155993,"ECCENTRICITY":0.00233937,"INCLINATION":65.001,"RA_OF_ASC_NODE":69.2225,"ARG_OF_PERICENTER":217.3816,"MEAN_ANOMALY":275.351,"EPHEMERIS_TYPE":0,"CLASSIFICATION_TYPE":"U","NORAD_CAT_ID":19751,"ELEMENT_SET_NO":999,"REV_AT_EPOCH":29322,"BSTAR":0,"MEAN_MOTION_DOT":-2e-8,"MEAN_MOTION_DDOT":0},{"OBJECT_NAME":"COSMOS 2024 (ETALON 2)","OBJECT_ID":"1989-039C","EPOCH":"2026-09-12T06:25:24.807936","MEAN_MOTION":2.13204634,"ECCENTRICITY":0.00208775,"INCLINATION":64.8771,"RA_OF_ASC_NODE":307.5316,"ARG_OF_PERICENTER":212.1442,"MEAN_ANOMALY":147.5273,"EPHEMERIS_TYPE":0,"CLASSIFICATION_TYPE":"U","NORAD_CAT_ID":20026,"ELEMENT_SET_NO":999,"REV_AT_EPOCH":29035,"BSTAR":0,"MEAN_MOTION_DOT":-3.8e-7,"MEAN_MOTION_DDOT":0},{"OBJECT_NAME":"LAGEOS 2","OBJECT_ID":"1992-070B","EPOCH":"2026-08-21T09:32:35.938752","MEAN_MOTION":6.47294115,"ECCENTRICITY":0.01380236,"INCLINATION":52.6389,"RA_OF_ASC_NODE":225.4441,"ARG_OF_PERICENTER":215.8902,"MEAN_ANOMALY":299.2308,"EPHEMERIS_TYPE":0,"CLASSIFICATION_TYPE":"U","NORAD_CAT_ID":22195,"ELEMENT_SET_NO":999,"REV_AT_EPOCH":79964,"BSTAR":0,"MEAN_MOTION_DOT":-9e-8,"MEAN_MOTION_DDOT":0},{"OBJECT_NAME":"STELLA","OBJECT_ID":"1993-061B","EPOCH":"2026-09-12T07:33:54.250272","MEAN_MOTION":14.27472368,"ECCENTRICITY":0.00061452,"INCLINATION":98.764,"RA_OF_ASC_NODE":319.8426,"ARG_OF_PERICENTER":353.5807,"MEAN_ANOMALY":51.5838,"EPHEMERIS_TYPE":0,"CLASSIFICATION_TYPE":"U","NORAD_CAT_ID":22824,"ELEMENT_SET_NO":999,"REV_AT_EPOCH":71720,"BSTAR":0.000010104991,"MEAN_MOTION_DOT":-2e-7,"MEAN_MOTION_DDOT":0},{"OBJECT_NAME":"LARETS","OBJECT_ID":"2003-042F","EPOCH":"2026-09-12T06:21:05.766048","MEAN_MOTION":14.63881002,"ECCENTRICITY":0.00133126,"INCLINATION":98.426,"RA_OF_ASC_NODE":59.35,"ARG_OF_PERICENTER":121.752,"MEAN_ANOMALY":238.498,"EPHEMERIS_TYPE":0,"CLASSIFICATION_TYPE":"U","NORAD_CAT_ID":27944,"ELEMENT_SET_NO":999,"REV_AT_EPOCH":22610,"BSTAR":0.000010414825,"MEAN_MOTION_DOT":4e-8,"MEAN_MOTION_DDOT":0},{"OBJECT_NAME":"LARES","OBJECT_ID":"2012-006A","EPOCH":"2026-09-12T05:55:08.497632","MEAN_MOTION":12.54932243,"ECCENTRICITY":0.00107353,"INCLINATION":69.4908,"RA_OF_ASC_NODE":143.5456,"ARG_OF_PERICENTER":309.3246,"MEAN_ANOMALY":50.6829,"EPHEMERIS_TYPE":0,"CLASSIFICATION_TYPE":"U","NORAD_CAT_ID":38077,"ELEMENT_SET_NO":999,"REV_AT_EPOCH":66799,"BSTAR":0.00014068796,"MEAN_MOTION_DOT":-1.6e-7,"MEAN_MOTION_DDOT":0},{"OBJECT_NAME":"LARES-2","OBJECT_ID":"2022-080A","EPOCH":"2026-09-09T05:15:27.832032","MEAN_MOTION":6.38965241,"ECCENTRICITY":0.00055498,"INCLINATION":70.1483,"RA_OF_ASC_NODE":276.5005,"ARG_OF_PERICENTER":317.5287,"MEAN_ANOMALY":42.5066,"EPHEMERIS_TYPE":0,"CLASSIFICATION_TYPE":"U","NORAD_CAT_ID":53105,"ELEMENT_SET_NO":999,"REV_AT_EPOCH":9703,"BSTAR":0,"MEAN_MOTION_DOT":1.3e-7,"MEAN_MOTION_DDOT":0}]